Regional Weather Roundup
Issued by NWS

Home | Current Version | Previous Version | Text Only | Print | Product List | Glossary Off
Versions: 1 2 3 4 5 6 7 8 9 10 11 12 13 14 15 16 17 18 19 20 21 22 23 24 25 26 27 28 29 30 31 32 33 34 35 36 37 38 39 40 41 42 43 44 45 46 47 48 49 50

000
ASUS43 KLOT 262103
RWRIL

ILLINOIS REGIONAL WEATHER ROUNDUP
NATIONAL WEATHER SERVICE CHICAGO/ROMEOVILLE IL
300 PM CST SUN FEB 26 2017

NOTE: "FAIR" INDICATES FEW OR NO CLOUDS BELOW 12,000 FEET WITH NO
SIGNIFICANT WEATHER AND/OR OBSTRUCTIONS TO VISIBILITY.

* THESE STATIONS ARE NOT UNDER NWS QUALITY CONTROL. THEY ALSO MAY NOT
  REPORT WEATHER SUCH AS PRECIPITATION OR FOG.

ILZ001-002-007-009-015-016-024-262200-
NORTHWEST ILLINOIS

CITY           SKY/WX    TMP DP  RH WIND       PRES   REMARKS
MOLINE         CLOUDY    49  23  36 W12       29.92S
STERLING*      SUNNY     49  21  33 SW20G28   29.92F
$$

ILZ003-004-008-010-011-017-018-262200-
NORTH CENTRAL ILLINOIS

CITY           SKY/WX    TMP DP  RH WIND       PRES   REMARKS
ROCKFORD       MOSUNNY   47  22  37 SW20G30   29.92S
FREEPORT*      SUNNY     45  23  41 W16G24    29.91S
ROCHELLE*      SUNNY     46  27  47 SW24      29.93S
DE KALB*       SUNNY     46  23  40 W16G29    29.93S
PERU*          SUNNY     48  20  32 SW20G26   29.96R
$$

ILZ005-006-012>014-019>023-262200-
NORTHEAST ILLINOIS

CITY           SKY/WX    TMP DP  RH WIND       PRES   REMARKS
CHICAGO-OHARE  MOSUNNY   49  20  31 SW23G33   29.92S
CHICAGO-MIDWAY MOSUNNY   49  19  30 SW17G36   29.94S
AURORA         SUNNY     48  23  37 SW18G29   29.93F
LANSING*       PTSUNNY   48  25  41 SW20      29.96S
JOLIET*        SUNNY     49  21  32 W10G22    29.96S
WAUKEGAN       SUNNY     46  21  37 W13G24    29.89S
DUPAGE AIRPORT MOSUNNY   48  21  34 W21G32    29.92F
KANKAKEE*      SUNNY     48  18  30 SW22G30   29.99S
WHEELING       SUNNY     47  18  31 W15G35    29.92S
MORRIS*        SUNNY     49  21  33 W18       29.95S
ROMEOVILLE*    SUNNY     47  26  43 W15G28    29.95S
NORTHERLY ISL    N/A     46  16  30 W13         N/A
$$

LMZ740>746-262200-
SOUTHERN LAKE MICHIGAN

STATION/POSITION SKY/WX   TEMP    WIND        PRES    VSBY  WAVE
                          AIR SEA DIR/SP/G                  HT/PER
                          (F)     (DEG/KT/KT) (MB)    (MI)  (FT/S)
HARRISON CRIB              46     250/ 15/ 21   N/A
BURNHAM HARBOR             47     190/ 10/ 21   N/A
CALUMET HARBOR             46     220/ 16/ 24 1013.4F
BURNS HARBOR               46     230/ 18/ 30 1014.9R
MICHIGAN CITY              44     200/ 24/ 28   N/A
$$

ILZ025>027-034>036-040-047-049-050-058-095>099-262200-
WEST-CENTRAL ILLINOIS

CITY           SKY/WX    TMP DP  RH WIND       PRES   REMARKS
QUINCY         CLOUDY    47  27  45 S20       30.00F
GALESBURG*     PTSUNNY   49  24  37 SW20G28   29.94S
MACOMB*        MOSUNNY   50  25  37 SW18G30   29.99S
JACKSONVILLE*  CLOUDY    46  24  43 S15G22    30.04S
PITTSFIELD*    CLOUDY    46  24  42 S12G18    30.04F
$$

ILZ028>032-037-038-041>044-048-051>054-059>061-262200-
CENTRAL ILLINOIS

CITY           SKY/WX    TMP DP  RH WIND       PRES   REMARKS
PONTIAC        SUNNY     50  20  30 SW22G29   29.98S
BLOOMINGTON    SUNNY     48  18  30 SW24G33   29.99F
DECATUR        PTSUNNY   45  17  32 SW21G29   30.06R
PEORIA         SUNNY     50  20  30 S21G26    29.97F
LACON*         PTSUNNY   50  22  34 SW15G21   29.95F
LINCOLN*       SUNNY     49  21  32 SW10G22   30.02S
SPRINGFIELD    PTSUNNY   46  19  34 SW18G25   30.05S
TAYLORVILLE    CLOUDY    44  20  39 S18G24    30.07S
$$

ILZ033-039-045-046-055>057-062-063-262200-
EAST-CENTRAL ILLINOIS

CITY           SKY/WX    TMP DP  RH WIND       PRES   REMARKS
CHAMPAIGN      MOSUNNY   48  16  27 SW26G32   30.04F
RANTOUL*       SUNNY     50  19  29 SW25G31   30.03R
MATTOON        CLOUDY    44  20  38 SW13G25   30.07S
PARIS*         CLOUDY    46  21  37 SW20      30.09S
$$

ILZ079-100>102-262200-
SOUTHWEST ILLINOIS

CITY           SKY/WX    TMP DP  RH WIND       PRES   REMARKS
ALTON          CLOUDY    46  18  31 S14       30.09S
BELLEVILLE     CLOUDY    47  16  29 VRB6      30.08F
CAHOKIA*       CLOUDY    48  14  25 S10       30.08F
SPARTA*        CLOUDY    47  20  34 S9        30.11F
$$

ILZ064>066-069>071-074>076-080>082-084>086-088>090-092>094-262200-
SOUTH-CENTRAL ILLINOIS

CITY           SKY/WX    TMP DP  RH WIND       PRES   REMARKS
CARBONDALE     CLOUDY    48  19  31 S13       30.12S
CAIRO*         PTSUNNY   51  20  28 SE9       30.11F
EFFINGHAM*     MOSUNNY   47  22  37 S10       30.11S
MARION         CLOUDY    52  16  24 S12       30.13F
MT. VERNON     PTSUNNY   49  18  29 S15       30.12S
CENTRALIA*     CLOUDY    49  22  34 S12       30.10S
SALEM*         CLOUDY    49  18  29 SW12      30.10F
METROPOLIS*    CLOUDY    52  20  29 CALM      30.13S
$$

ILZ067-068-072-073-078-083-087-091-262200-
SOUTHEAST ILLINOIS

CITY           SKY/WX    TMP DP  RH WIND       PRES   REMARKS
LAWRENCEVILLE  MOSUNNY   49  17  28 S17       30.13S
FLORA*         CLOUDY    49  20  32 SW10      30.12S
FAIRFIELD*     PTSUNNY   49  19  30 SW9       30.12S
HARRISBURG*    CLOUDY    50  21  31 SW9       30.14S
ROBINSON*      CLOUDY    47  18  31 SW13G21   30.12S
CARMI*         MOSUNNY   51  19  28 S12G18    30.13S
$$

ABBREVIATIONS USED IN REMARKS
   TC - TEMPERATURE IN CELSIUS
  WCI - WIND CHILL INDEX
   HX - HEAT INDEX
  VSB - VISIBILITY
$$





USA.gov is the U.S. government's official web portal to all federal, state and local government web resources and services.